[[{"header":{"parameterUnit":"m.s-1","parameterCategory":1,"la1":30.2991,"la2":30.254,"lo1":-89.0895,"lo2":-89.0444,"dy":0.0017,"dx":0.0017,"nx":28,"ny":28,"refTime":"2025-07-09T09:00:00:Z","depth":0,"parameterNumber":2,"parameterNumberName":"U-component_of_WINDS"},"data":[0,0,0,0,0,0,0,0,0,0,0,0,0,0,0,0,0,0,0,0,0,0,0,0,0,0,0,0,0,0,0,0,0,0,0,0,0,0,0,0,0,0,0,0,0,0,0,0,0,0,0,0,0,0,0,0,0,0,2.9106,2.9107,0,2.9146,2.9146,2.9147,2.9118,2.9116,2.9115,2.9114,2.9155,2.9158,2.916,0,0,0,0,0,0,0,0,0,0,0,0,0,2.9008,2.901,2.9106,2.9107,2.9107,2.9146,2.9146,2.9147,2.9118,2.9116,2.9115,2.9113,2.9155,2.9157,2.916,0,0,0,0,0,0,0,0,0,0,0,0,0,2.905,2.9011,2.9106,2.9097,2.9097,2.9146,2.9146,2.9147,2.9118,2.9116,2.9114,2.9112,2.9154,2.9157,2.916,2.922,0,0,2.9171,2.9173,0,0,0,0,0,0,0,0,2.9047,2.9053,2.9098,2.9098,2.9098,2.9125,2.9127,2.9172,2.9119,2.911,2.9114,2.9111,2.9147,2.9151,2.9162,2.9222,2.9224,2.9171,2.9173,2.9175,2.9176,0,0,0,0,0,0,0,2.9044,2.9051,2.9122,2.9099,2.9099,2.9092,2.9096,2.9135,2.9139,2.9111,2.9109,2.9114,2.9146,2.9159,2.9163,2.9225,2.9171,2.9174,2.9176,2.9178,2.9339,2.9341,0,0,0,0,0,0,2.9042,2.9049,2.9121,2.9123,2.9067,2.9096,2.91,2.9118,2.9138,2.914,2.9115,2.9112,2.9154,2.9159,2.9165,2.9238,2.9175,2.9178,2.918,2.9336,2.9339,2.9342,0,0,0,0,0,0,2.904,2.9049,2.9119,2.9086,2.9094,2.9099,2.912,2.912,2.9133,2.9142,2.9142,2.9128,2.9153,2.916,2.9207,2.9239,2.918,2.9183,2.9334,2.9337,2.934,2.9384,0,0,0,0,0,0,2.9037,2.9048,2.907,2.9086,2.9096,2.9161,2.9122,2.9122,2.9139,2.9135,2.9153,2.9155,2.9152,2.9202,2.9211,2.9243,2.9186,2.9331,2.9335,2.9339,2.938,2.9388,2.9396,0,0,0,0,0,2.9034,2.9081,2.9072,2.908,2.9124,2.9162,2.9168,2.9163,2.9141,2.9164,2.917,2.9154,2.9234,2.9207,2.9217,2.925,2.9329,2.9334,2.9339,2.9376,2.9387,2.9396,0,0,0,0,0,0,2.9068,2.9083,2.9073,2.9126,2.9143,2.9157,2.9186,2.9174,2.9198,2.9194,2.9188,2.9192,2.9243,2.9251,2.9221,2.931,2.9278,2.9285,2.9303,2.9313,2.9321,2.9319,2.9188,0,0,0,0,0,2.9082,2.9111,2.9123,2.9168,2.9178,2.9181,2.9197,2.9192,2.921,2.9217,2.9227,2.9245,2.9275,2.9294,2.9322,2.9381,2.9386,2.9408,2.9416,2.9423,2.9429,2.9464,2.9475,2.9358,2.9358,2.9358,0,0,2.911,2.9122,2.9141,2.9176,2.9188,2.9221,2.9187,2.9221,2.9246,2.9223,2.9269,2.9277,2.9297,2.9351,2.9376,2.936,2.9463,2.9429,2.9434,2.9437,2.947,2.9481,2.9491,2.9361,2.9361,2.936,0,0,2.9179,2.919,2.923,2.9244,2.9264,2.9266,2.9276,2.9293,2.9297,2.9343,2.9328,2.9356,2.9407,2.9423,2.9437,2.9514,2.9501,2.9523,2.9566,2.9599,2.9608,2.9616,2.9646,2.9656,2.953,2.953,2.953,0,2.9212,2.9259,2.9253,2.9289,2.9306,2.9287,2.9329,2.9343,2.9371,2.9384,2.9365,2.943,2.9442,2.9501,2.952,2.9531,2.9544,2.9522,2.9607,2.9615,2.9623,2.9651,2.9662,2.9532,2.9532,2.9532,2.9532,0,2.93,2.9333,2.9363,2.9391,2.9411,2.945,2.9451,2.9472,2.9466,2.9471,2.9519,2.9533,2.9564,2.9578,2.9572,2.9637,2.9626,2.9608,2.9575,2.9637,2.9663,2.9674,2.9536,2.9535,2.9535,2.9534,0,0,2.939,2.9416,2.9427,2.9441,2.9463,2.9489,2.9528,2.9558,2.9577,2.9598,2.9632,2.9676,2.9659,2.9676,2.9672,2.9701,2.9764,2.9679,2.9679,2.9696,2.9839,2.9854,2.9866,2.9755,2.9757,2.9758,2.9837,0,2.9462,2.9529,2.9526,2.959,2.9622,2.9605,2.9639,2.9657,2.9663,2.9691,2.9697,2.9729,2.9704,2.9714,2.9742,2.975,2.9793,2.9744,2.9788,2.9789,2.9784,2.9879,2.9895,2.9969,2.9848,2.9849,2.985,0,2.9553,2.9578,2.9645,2.9664,2.9678,2.9708,2.9737,2.9764,2.9785,2.9787,2.9807,2.9798,2.9839,2.9805,2.9863,2.983,2.9848,2.9855,2.9858,2.9862,2.9824,2.9888,2.9992,3.0003,2.9866,2.9865,2.9864,0,2.9615,2.9665,2.9712,2.9724,2.9747,2.977,2.978,2.9799,2.9818,2.9844,2.9856,2.9886,2.9903,2.9927,2.9927,2.9902,2.9986,2.9952,2.9991,2.9991,3.001,3.0009,3.0119,3.0019,3.0019,3.0019,3.0018,0,2.9696,2.9739,2.9741,2.977,2.9818,2.9814,2.9861,2.987,2.9887,2.9919,2.9906,2.9936,2.9934,2.9965,2.9966,3.0014,3.0022,3.0026,3.0026,3.0028,3.0027,3.004,3.0035,3.0022,3.0021,3.002,3.002,0,2.9774,2.9777,2.9827,2.9845,2.9851,2.9886,2.9901,2.993,2.9935,2.9975,2.9984,2.9992,3.0028,3.0031,3.0072,3.0073,3.0133,3.0126,3.0126,3.0125,3.0164,3.0161,3.0288,3.0305,3.0192,3.0193,3.0194,0,2.9826,2.9858,2.988,2.99,2.9912,2.9945,2.9965,2.9963,2.9984,3.0011,3.0037,3.0072,3.01,3.0158,3.0168,3.02,3.0195,3.0238,3.02,3.0202,3.0198,3.0197,3.0201,3.0245,3.0246,3.0247,3.0248,0,2.9919,2.9919,2.9948,2.9978,3.0003,3.0026,3.0048,3.0066,3.0067,3.0092,3.0128,3.015,3.0193,3.0228,3.026,3.0272,3.0262,3.026,3.0271,3.0274,3.0273,3.0276,3.0147,3.0257,3.0256,3.0256,3.0255,3.0255,2.9986,3.0015,3.0036,3.0069,3.0086,3.0107,3.0135,3.0144,3.0175,3.0209,3.0206,3.0248,3.0269,3.0311,3.0326,3.0359,3.0345,3.036,3.0364,3.0369,3.0374,3.0267,3.0364,3.0364,3.0364,3.0364,3.0363,0,3.008,3.0093,3.0124,3.0155,3.0182,3.0169,3.0193,3.0217,3.0253,3.0274,3.0302,3.0346,3.038,3.0393,3.0428,3.0452,3.0448,3.0461,3.046,3.0463,3.0383,3.0371,3.0464,3.0464,3.0464,3.0464,3.0464,3.0464,3.0132,3.0181,3.0184,3.0242,3.0254,3.0295,3.031,3.033,3.0347,3.0396,3.0425,3.0433,3.0452,3.0487,3.0519,3.0522,3.0536,3.0552,3.0553,3.0479,3.0469,3.0459,3.0448,3.0555,3.0555,3.0631,3.0631,3.0632]},{"header":{"parameterUnit":"m.s-1","parameterCategory":1,"la1":30.2991,"la2":30.254,"lo1":-89.0895,"lo2":-89.0444,"dy":0.0017,"dx":0.0017,"nx":28,"ny":28,"refTime":"2025-07-09T09:00:00:Z","depth":0,"parameterNumber":3,"parameterNumberName":"V-component_of_WINDS"},"data":[0,0,0,0,0,0,0,0,0,0,0,0,0,0,0,0,0,0,0,0,0,0,0,0,0,0,0,0,0,0,0,0,0,0,0,0,0,0,0,0,0,0,0,0,0,0,0,0,0,0,0,0,0,0,0,0,0,0,-1.6183,-1.6183,0,-1.6161,-1.6161,-1.6161,-1.6139,-1.6139,-1.6138,-1.6138,-1.6114,-1.6114,-1.6113,0,0,0,0,0,0,0,0,0,0,0,0,0,-1.6205,-1.6205,-1.6183,-1.6183,-1.6182,-1.6161,-1.6161,-1.6161,-1.6139,-1.6139,-1.6138,-1.6138,-1.6114,-1.6114,-1.6113,0,0,0,0,0,0,0,0,0,0,0,0,0,-1.619,-1.6204,-1.6183,-1.6169,-1.6168,-1.6161,-1.6161,-1.6161,-1.6139,-1.6139,-1.6138,-1.6138,-1.6114,-1.6114,-1.6113,-1.6119,0,0,-1.6112,-1.6111,0,0,0,0,0,0,0,0,-1.6191,-1.619,-1.6171,-1.617,-1.6168,-1.6152,-1.616,-1.6147,-1.6139,-1.615,-1.6138,-1.6137,-1.6127,-1.6125,-1.6122,-1.6117,-1.6116,-1.6111,-1.6111,-1.6111,-1.6111,0,0,0,0,0,0,0,-1.6192,-1.619,-1.6174,-1.6171,-1.6169,-1.6164,-1.6161,-1.6157,-1.6141,-1.6149,-1.6147,-1.6145,-1.6126,-1.6123,-1.6122,-1.6116,-1.6111,-1.6111,-1.6111,-1.611,-1.6117,-1.6118,0,0,0,0,0,0,-1.6196,-1.6191,-1.6175,-1.6174,-1.6179,-1.6164,-1.6161,-1.6158,-1.6141,-1.6138,-1.6145,-1.6144,-1.6124,-1.6122,-1.6121,-1.6127,-1.6111,-1.611,-1.611,-1.6117,-1.6117,-1.6118,0,0,0,0,0,0,-1.6196,-1.6194,-1.6176,-1.6182,-1.6179,-1.6164,-1.6161,-1.6158,-1.6154,-1.6139,-1.6135,-1.6145,-1.6124,-1.6121,-1.612,-1.6126,-1.611,-1.611,-1.6116,-1.6117,-1.6117,-1.614,0,0,0,0,0,0,-1.6197,-1.6195,-1.6196,-1.6182,-1.6179,-1.6176,-1.6161,-1.6158,-1.6154,-1.6152,-1.6137,-1.6135,-1.6123,-1.6121,-1.6119,-1.6125,-1.6109,-1.6115,-1.6116,-1.6117,-1.6139,-1.6141,-1.6144,0,0,0,0,0,-1.6198,-1.6203,-1.6197,-1.6195,-1.6181,-1.6176,-1.6174,-1.6161,-1.6154,-1.6156,-1.6146,-1.6135,-1.6126,-1.6121,-1.6119,-1.6125,-1.6115,-1.6116,-1.6117,-1.6137,-1.6141,-1.6144,0,0,0,0,0,0,-1.6216,-1.62,-1.6194,-1.6194,-1.6187,-1.6172,-1.6174,-1.6165,-1.6159,-1.6157,-1.6141,-1.6138,-1.6139,-1.6131,-1.6126,-1.613,-1.6119,-1.612,-1.6135,-1.6138,-1.6141,-1.6142,-1.6109,0,0,0,0,0,-1.6221,-1.6218,-1.6204,-1.6206,-1.6203,-1.619,-1.6187,-1.6178,-1.6169,-1.6166,-1.6155,-1.6147,-1.6143,-1.614,-1.6135,-1.6138,-1.6135,-1.6141,-1.6143,-1.6146,-1.6146,-1.6149,-1.6152,-1.6121,-1.6121,-1.6121,0,0,-1.6229,-1.6221,-1.622,-1.621,-1.6203,-1.6201,-1.6187,-1.6185,-1.6183,-1.6165,-1.6164,-1.6156,-1.6146,-1.6148,-1.6148,-1.6141,-1.6155,-1.6147,-1.6149,-1.6149,-1.6151,-1.6154,-1.6156,-1.6122,-1.6122,-1.6122,0,0,-1.6244,-1.6237,-1.6239,-1.6233,-1.6223,-1.6215,-1.6215,-1.6203,-1.6198,-1.6196,-1.6183,-1.6181,-1.6173,-1.6167,-1.6163,-1.6179,-1.6169,-1.6177,-1.6191,-1.6194,-1.6196,-1.6199,-1.6205,-1.6208,-1.6178,-1.6178,-1.6178,0,-1.6256,-1.6253,-1.624,-1.624,-1.6237,-1.6222,-1.6224,-1.6219,-1.6208,-1.6206,-1.6199,-1.6191,-1.6183,-1.6183,-1.6188,-1.6184,-1.6185,-1.6179,-1.6197,-1.6199,-1.6201,-1.6207,-1.621,-1.618,-1.6179,-1.6179,-1.6179,0,-1.6269,-1.6267,-1.6269,-1.6261,-1.6258,-1.6258,-1.6247,-1.6245,-1.6237,-1.6229,-1.6229,-1.6219,-1.6213,-1.6212,-1.6203,-1.6212,-1.6209,-1.62,-1.6188,-1.6205,-1.6211,-1.6213,-1.6181,-1.6181,-1.618,-1.618,0,0,-1.6293,-1.628,-1.6281,-1.6278,-1.6267,-1.6266,-1.6267,-1.6261,-1.6261,-1.6254,-1.6255,-1.625,-1.6243,-1.6238,-1.6229,-1.6232,-1.6247,-1.6222,-1.6222,-1.6228,-1.6258,-1.6265,-1.6268,-1.624,-1.6241,-1.6241,-1.6259,0,-1.6307,-1.6308,-1.6298,-1.6302,-1.6301,-1.6288,-1.6289,-1.6283,-1.6276,-1.6274,-1.6266,-1.6264,-1.6253,-1.6251,-1.6253,-1.6244,-1.6253,-1.6243,-1.6241,-1.6241,-1.6245,-1.6271,-1.6278,-1.6295,-1.6261,-1.6261,-1.6262,0,-1.6322,-1.6319,-1.6323,-1.6315,-1.6314,-1.6315,-1.6311,-1.6309,-1.6303,-1.6298,-1.6294,-1.6284,-1.6285,-1.6274,-1.6276,-1.627,-1.6268,-1.6265,-1.6265,-1.6264,-1.6253,-1.6272,-1.63,-1.6304,-1.6265,-1.6265,-1.6264,0,-1.6342,-1.6337,-1.634,-1.6338,-1.6328,-1.6329,-1.6325,-1.6318,-1.6316,-1.6313,-1.6312,-1.6308,-1.6305,-1.6303,-1.6293,-1.6285,-1.6296,-1.6284,-1.6292,-1.6293,-1.6295,-1.6295,-1.6325,-1.6293,-1.6293,-1.6293,-1.6293,0,-1.6358,-1.6361,-1.6349,-1.635,-1.6354,-1.6343,-1.6347,-1.6342,-1.6336,-1.6337,-1.6325,-1.6326,-1.6312,-1.6312,-1.6304,-1.6307,-1.6306,-1.6303,-1.63,-1.6304,-1.6305,-1.6303,-1.6302,-1.6294,-1.6294,-1.6294,-1.6293,0,-1.638,-1.6371,-1.6374,-1.6365,-1.6363,-1.6366,-1.6359,-1.636,-1.6354,-1.6355,-1.6355,-1.6344,-1.6343,-1.6333,-1.6329,-1.6324,-1.6331,-1.6326,-1.6334,-1.6332,-1.6342,-1.6342,-1.6372,-1.6376,-1.6342,-1.6342,-1.6342,0,-1.6391,-1.6394,-1.6386,-1.6386,-1.6383,-1.6383,-1.6382,-1.6372,-1.6371,-1.6366,-1.6368,-1.6367,-1.6365,-1.6364,-1.6356,-1.6354,-1.635,-1.6361,-1.6349,-1.6353,-1.6351,-1.6351,-1.6352,-1.6363,-1.6363,-1.6364,-1.6364,0,-1.6412,-1.6409,-1.6408,-1.6407,-1.6406,-1.6404,-1.6401,-1.6402,-1.6391,-1.6391,-1.6391,-1.639,-1.6387,-1.6386,-1.6383,-1.6379,-1.637,-1.6368,-1.637,-1.6374,-1.6378,-1.6377,-1.6341,-1.6367,-1.6367,-1.6366,-1.6366,-1.6366,-1.643,-1.6432,-1.6428,-1.6428,-1.6426,-1.6424,-1.6426,-1.642,-1.642,-1.6418,-1.6412,-1.6413,-1.6409,-1.6404,-1.6401,-1.6402,-1.6396,-1.6399,-1.64,-1.6401,-1.6403,-1.6378,-1.6401,-1.6401,-1.6401,-1.6401,-1.6401,0,-1.6451,-1.6449,-1.6449,-1.6447,-1.6447,-1.644,-1.6437,-1.6438,-1.644,-1.6437,-1.6436,-1.6437,-1.6437,-1.643,-1.6429,-1.6431,-1.6427,-1.6431,-1.6431,-1.6431,-1.6408,-1.6407,-1.6435,-1.6435,-1.6435,-1.6435,-1.6435,-1.6435,-1.6463,-1.6468,-1.6464,-1.6468,-1.6465,-1.6467,-1.6466,-1.6465,-1.6463,-1.6465,-1.6465,-1.6461,-1.6457,-1.6456,-1.6456,-1.6454,-1.6454,-1.646,-1.6457,-1.6435,-1.6432,-1.6429,-1.6428,-1.646,-1.646,-1.648,-1.648,-1.648]}]]